Tracking 29892 objects as of 21-Nov-2024
HD Live streaming from Space Station
objects crossing your sky now

ONEWEB-0710

Track ONEWEB-0710 now!
10-day predictions
ONEWEB-0710 is classified as:


NORAD ID: 55173
Int'l Code: 2023-004AK
Perigee: 1,199.7 km
Apogee: 1,202.0 km
Inclination: 87.9 °
Period: 109.3 minutes
Semi major axis: 7571 km
RCS: Unknown
Launch date: January 10, 2023
Source: United Kingdom (UK)
Launch site: AIR FORCE WESTERN TEST RANGE (AFWTR)
Your satellite tracking list
Your tracking list is empty




NASA's NSSDC Master Catalog

Two Line Element Set (TLE):
1 55173U 23004AK  24325.88570631  .00000047  00000-0  87132-4 0  9990
2 55173  87.9074 120.0982 0001560  99.6351 260.4957 13.17647459 92084
Source of the keplerian elements: AFSPC